www.pogodaiklimat.ru
ПОГОДА в Ковеле
Время
(UTC), дата
12 6.11
15 6.11
18 6.11
21 6.11
00 7.11
03 7.11
06 7.11
09 7.11
12 7.11
15 7.11
18 7.11
21 7.11
00 8.11
03 8.11
06 8.11
09 8.11
12 8.11
15 8.11
18 8.11
21 8.11
00 9.11
03 9.11
06 9.11
09 9.11
12 9.11
15 9.11
18 9.11
21 9.11
00 10.11
03 10.11
06 10.11
09 10.11
12 10.11
15 10.11
18 10.11
21 10.11
00 11.11
03 11.11
06 11.11
09 11.11
12 11.11
15 11.11
18 11.11
21 11.11
00 12.11
03 12.11
06 12.11
09 12.11
12 12.11
15 12.11
18 12.11
21 12.11
00 13.11
03 13.11
06 13.11
09 13.11
Ветер
(напр.,м/с)
Видим. Явления Облачность Т
(С)
Тd
(С)
f
(%)
Тe
(С)
Тes
(С)
Комфортность P
(гПа)
Po
(гПа)
Тmin
(С)
Tmax
(С)
R
(мм)
R24
(мм)
S
(см)
З 3 20 км {ливн. осадки} 10/8 720 м
[Cb calv Ac und Ci fib]
+9.7 +8.1 90 +7 +7 тепло 1002.0 981.2 4
ЮЗ 2 20 км 3/3 1000 м
[Sc]
+8.9 +6.9 87 +7 +7 тепло 1004.0 983.1
ЮЗ 2 20 км 6/0
[Ci fib]
+7.0 +5.9 93 +5 +5 тепло 1006.0 984.9 +10.6 4
Ю 2 20 км 8/0
[Ci fib]
+5.0 +4.9 99 +2 +2 по сезону 1008.0 986.7
ЮЗ 1 20 км ясно +4.4 +4.3 99 +3 +3 по сезону 1009.0 987.6
Ю 1 10 км ясно +2.8 +2.5 98 +1 +1 по сезону 1009.0 987.5
Ю 1 4000 м дымка 10/0
[Ac und Ci fib]
+3.0 +3.0 100 +1 +1 по сезону 1010.0 988.5 +2.5
ЮВ 2 20 км 10/0
[As trans]
+7.3 +6.4 94 +5 +5 тепло 1010.0 988.8
СВ 2 10 км слаб. дождь 10/0
[Ac As]
+8.9 +8.1 95 +7 +7 тепло 1008.0 987.0 0.8
СВ 2 10 км слаб. дождь 10/8 300 м
[Frnb Ac As]
+8.4 +8.3 99 +6 +6 тепло 1009.0 988.0
штиль 0 10 км в посл. час дождь 10/10 300 м
[St]
+8.0 +7.9 99 +7 +7 тепло 1009.0 987.9 +9.5 8
штиль 0 2000 м дымка 10/10 270 м
[St]
+7.6 +7.5 99 +7 +7 тепло 1011.0 989.8
штиль 0 20 км в посл. час туман 10/10 630 м
[St]
+7.7 +7.6 99 +7 +7 тепло 1012.0 990.8
штиль 0 20 км 9/9 1000 м
[Sc]
+7.5 +7.4 99 +6 +6 тепло 1014.0 992.8
штиль 0 20 км 10/10 270 м
[St]
+7.3 +6.6 95 +6 +6 тепло 1015.0 993.7 +7.2
В 4 20 км 10/10 270 м
[St]
+6.7 +6.0 95 +3 +3 по сезону 1017.0 995.6
В 3 20 км 10/10 300 м
[St]
+7.5 +6.9 96 +4 +4 по сезону 1016.0 994.7
В 3 20 км 10/10 330 м
[St]
+7.6 +7.0 96 +5 +5 тепло 1015.0 993.8
В 4 10 км слаб. дождь 10/10 330 м
[Frnb Ns]
+7.9 +7.5 97 +4 +4 по сезону 1014.0 992.8 +8.0 1
В 5 10 км слаб. дождь 10/10 360 м
[Frnb Ns]
+8.1 +7.5 96 +4 +4 по сезону 1013.0 991.8
ЮВ 3 10 км слаб. дождь 10/10 300 м
[Frnb Ns]
+9.3 +8.8 97 +7 +7 тепло 1011.0 990.0 4
ЮВ 2 10 км {дождь} 10/10 330 м
[St]
+10.3 +9.8 97 +9 +9 тепло 1010.0 989.1
ЮВ 1 10 км {дождь} 10/6 1000 м
[Sc Ci fib]
+9.7 +9.2 97 +9 +9 тепло 1011.0 990.0 +7.8 5
Ю 1 20 км ясно +14.7 +10.9 78 +15 +18 тепло 1011.0 990.4
ЮЗ 2 20 км 10/0
[Ci fib]
+17.8 +9.7 59 +18 +18 тепло 1010.0 989.6
ЮВ 2 20 км 10/3 1000 м
[Sc Ac lent]
+13.9 +11.2 84 +13 +13 тепло 1011.0 990.3
ЮВ 1 20 км 10/0
[Ci fib]
+12.3 +10.9 91 +12 +12 тепло 1012.0 991.2 +18.0
штиль 0 20 км 10/0
[Ci fib]
+11.0 +10.5 97 +10 +10 тепло 1012.0 991.1
штиль 0 20 км 10/10 1000 м
[Sc]
+10.1 +9.6 97 +9 +9 тепло 1011.0 990.0
штиль 0 20 км 10/10 330 м
[St]
+10.2 +9.7 97 +9 +9 тепло 1011.0 990.1
штиль 0 200 м туман ?/? +10.3 +10.3 100 +9 +9 тепло 1011.0 990.1 +9.6
В 2 10 км {туман} 10/10 360 м
[St]
+10.5 +10.0 97 +9 +9 тепло 1011.0 990.1
В 2 4000 м дымка {туман} 10/10 330 м
[St]
+10.5 +10.5 100 +9 +9 тепло 1010.0 989.1
СВ 1 4000 м слаб. дождь {морось} 10/10 300 м
[Frnb Ns]
+10.6 +10.6 100 +10 +10 тепло 1010.0 989.1
штиль 0 4000 м дымка {дождь} 10/10 300 м
[St]
+10.5 +10.5 100 +10 +10 тепло 1009.0 988.1 +11.0 2
штиль 0 4000 м дымка 10/10 300 м
[St]
+10.5 +10.5 100 +10 +10 тепло 1009.0 988.1
З 3 4000 м дымка 10/10 300 м
[St]
+9.9 +9.9 100 +7 +7 тепло 1010.0 989.1
З 3 4000 м дымка 10/10 300 м
[St]
+7.4 +7.4 100 +4 +4 по сезону 1012.0 990.8
З 3 20 км 10/10 330 м
[St]
+6.9 +6.5 97 +4 +4 по сезону 1014.0 992.7 +6.8
З 4 10 км слаб. морось 10/10 300 м
[St]
+6.8 +6.4 97 +3 +3 по сезону 1016.0 994.7
З 3 20 км {морось} 10/10 800 м
[Cb cap]
+7.5 +5.6 88 +5 +5 тепло 1017.0 995.7 0.3
ЮЗ 1 20 км 10/10 800 м
[Cb cap]
+7.1 +6.0 93 +6 +6 тепло 1018.0 996.7
Ю 1 20 км ясно +4.3 +3.3 93 +3 +3 по сезону 1019.0 997.4 +8.0 0.3
штиль 0 20 км ясно +1.1 +0.2 94 -0 -0 по сезону 1020.0 998.1
штиль 0 4000 м дымка ясно +0.4 -0.2 96 -1 -1 по сезону 1020.0 998.1
штиль 0 20 км 3/0
[Ci fib]
+1.7 +1.1 96 0 0 по сезону 1019.0 997.2
В 2 20 км 10/0
[Ac und Ci fib]
+2.0 +1.4 96 -1 -1 по сезону 1019.0 997.2 +0.2
ЮВ 3 20 км 10/0
[Ac lent Ci fib]
+7.3 +4.6 83 +4 +4 по сезону 1018.0 996.7
ЮВ 4 20 км 10/0
[Ac lent Ci fib]
+9.4 +6.1 80 +7 +7 тепло 1016.0 994.9
ЮВ 4 20 км 10/4 1000 м
[Sc Ac und Ci fib]
+9.1 +7.2 88 +6 +6 тепло 1015.8 994.7
ЮВ 3 20 км 10/0
[Ac und Ci fib]
+8.4 +6.9 90 +6 +6 тепло 1015.0 993.8 +10.4
В 3 20 км 9/0
[Ac und]
+8.7 +7.2 90 +6 +6 тепло 1013.0 991.9
ЮВ 3 20 км 10/0
[As trans]
+9.5 +7.8 89 +7 +7 тепло 1012.0 991.0
ЮВ 4 20 км 10/6 1000 м
[Sc As trans]
+10.7 +8.6 87 +8 +8 тепло 1010.0 989.1
ЮВ 4 10 км 10 баллов +10.6 +7.7 82 +8 +8 тепло 1010.0 989.1 +7.8
В 5 10 км 10 баллов +12.7 +8.6 76 +11 +11 тепло 1009.0 988.3
Местоположение метеостанции Ковель (Волынская область, Украина): широта 51.22 долгота 24.68 высота над уровнем моря 174 м.
В архиве по умолчанию представлена погода в Ковеле за последнюю неделю. Архивные данные за месяц целиком и за предыдущие месяцы, начиная с января 2011 года, Вы можете получить, выбрав интересующий диапазон дат из раскрывающегося списка и нажав кнопку "Найти!".
*Определитесь, кто Вы:
Внимание! Время в таблицах - всемирное. Для получения местного времени необходимо прибавить поправку, которая равна 2 ч.
Смотрите также архив погоды в соседних городах и на ближайших метеорологических станциях:
Партнеры нашего сайта:      
Пояснения к столбцам:
  • Ветер - указаны скорость ветра в м/с - средняя за 10 мин, порывы в срок и между сроками (в фигурных скобках) и направление, откуда дует ветер: С - северный,
  • СВ - северо-восточный, В - восточный, ЮВ - юго-восточный, Ю - южный, ЮЗ - юго-западный, З - западный, СЗ - северо-западный.
  • Видимость - горизонтальная дальность видимости в метрах или километрах. При видимости от 1 до 10 км при отсутствии осадков обычно наблюдается дымка, при ухудшении видимости до 1 км и менее - туман. В сухую погоду видимость может ухудшаться дымом, пылью или мглою.
  • Явления - указаны атмосферные явления, наблюдавшиеся в срок или в последний час перед сроком; фигурными скобками обозначены явления, наблюдавшиеся между сроками (за 1-3 часа до срока); квадратными скобками обозначены град или гололедные отложения с указанием их диаметра в мм.
  • Облачность - указаны через наклонную черту общая и нижняя облачность в баллах и высота нижней границы облаков в метрах; квадратными скобками обозначены формы облаков: Ci - перистые, Cs - перисто-слоистые, Cc - перисто-кучевые, Ac - высококучевые, As - высокослоистые, Sc - слоисто-кучевые, Ns - слоисто-дождевые, Cu - кучевые, Cb - кучево-дождевые. Подробнее классификацию облаков см. в Атласе облаков (PDF).
  • T - Температура воздуха - температура, измеренная на высоте 2 м над землей.
  • Td - Температура точки росы - температура, при понижении до которой содержащийся в воздухе водяной пар достигнет насыщения.
  • f - Относительная влажность воздуха - влажноcть воздуха, измеренная на высоте 2 м над землей.
  • Te - Эффективная температура - температура, которую ощущает одетый по сезону человек в тени. Характеристика душности погоды. При расчете учитывается влияние влажности воздуха и скорости ветра на теплоощущения человека.
  • Tes - Эффективная температура на солнце - температура, которую ощущает человек, с поправкой на солнечный нагрев. Характеристика знойности погоды. Зависит от высоты солнца над горизонтом, облачности и скорости ветра. Ночью, в пасмурную погоду, а также при ветре 12 м/с и более поправка равна нулю.
  • P - Атмосферное давление - приведенное к уровню моря атмосферное давление.
  • Po - Атмосферное давление - измеренное на уровне метеостанции атмосферное давление.
  • Tmin - Минимальная температура - минимум температуры воздуха на высоте 2 м над землей.
  • Tmax - Максимальная температура - максимум температуры воздуха на высоте 2 м над землей.
  • R - Количество осадков - Количество выпавших осадков за период времени, мм. При наведении курсора мыши на число - период времени, за который выпало указанное количество осадков.
  • R24 - Количество осадков - Количество выпавших осадков за 24 часа, мм.
  • S - Снежный покров - Высота снежного покрова, см. При наведении курсора мыши на число - состояние снежного покрова и степень покрытия местности в баллах.